logo
Rechercher aéroport 
image banner adimage banner adimage banner ad
image banner ad

EYTL - Telsiai

Situé à Telsiai, Lithuania

ICAO - EYTL, IATA -

Données fournies par Airmate  

Information générale

Coordonnées: N55°59'11" E22°17'16"
Élévation : 410 feet MSL.
Variation magnétique : 7° East
Voir autres Aéroports à Telšiai County

Données opérationnelles

Special qualification required
Heure actuelle UTC:
Heure actuelle locale:
METAR: EYSA 240720Z 11009KT CAVOK 22/14 Q1024 NOSIG
TAF: TAF EYSA 240500Z 2406/2415 13012KT 9000 NSC TEMPO 2409/2412 14015G25KT SCT049TCU TEMPO 2412/2415 14015G25KT SCT049CB
Voir NOTAMs / SUP AIP / TFR affectant cet aéroport [VIEW]
Fréquences de communication: [VIEW]

Pistes:

Identifiant RWYQFULongueur (ft)Largeur (ft)SurfaceLDA (ft)
05R52°1903197GRASS
23L232°1903197GRASS
11119°1509328GRASS
29299°1509328GRASS

Coordonnées de l'aéroport

Adresse: Telsiai Lithuania

Vue satellite de EYTL